Location: Exeidioux
(45.6312°N, 1.6819°E)
Time: 20:50:46
(UTC+00:00)

Okean 1-7 - Pass Details

Date: 03 March 2021
Orbit: 589 x 619 km, 82.5° (Epoch: 13 April)

Event Time Altitude Azimuth Distance (km) Brightness Sun altitude
Rises 19:35:02 0° 348° (NNW) 2,896 6.8 -20.3°
Reaches altitude 10° 19:37:18 10° 345° (NNW) 1,982 6.0 -20.7°
Maximum altitude 19:41:38 64° 265° (W) 679 3.4 -21.4°
Enters shadow 19:45:52 10° 184° (S) 1,938 5.5 -22.1°
